CPA24W VHHH-PHNL

Flight info

Callsign CPA24W
Flight time N/A
Altitude 35000
Route OMDOB DCT 19N130E DCT KEITH DCT VASKO DCT 29N150E/N0493F370 32N160E 32N170E 30N180E/N0483F390 26N170W DCT CANON BOOKE8
Aircraft A35K/H-SDE2E3GHIJ3J4J5LM1ORWXY/LB1D1

Departure

Time N/A
Airport Hong Kong International Airport (VHHH)

Arrival

Time 2026-05-05 09:37
Airport Daniel K. Inouye International Airport (PHNL)
Time Latitude Longitude Altitude Speed Heading
2026-05-05 09:09 22.79881 -162.61124 39161 ft 532 kts 120°
2026-05-05 09:10 22.76861 -162.54666 39141 ft 532 kts 120°
2026-05-05 09:10 22.73520 -162.47515 39137 ft 532 kts 120°
2026-05-05 09:11 22.70267 -162.40351 39147 ft 534 kts 115°
2026-05-05 09:11 22.68121 -162.32648 39154 ft 536 kts 109°
2026-05-05 09:12 22.65968 -162.24906 39140 ft 536 kts 109°
2026-05-05 09:12 22.63861 -162.17163 39148 ft 536 kts 108°
2026-05-05 09:13 22.61764 -162.09422 39133 ft 536 kts 108°
2026-05-05 09:13 22.59681 -162.01730 39148 ft 536 kts 108°
2026-05-05 09:14 22.57582 -161.93990 39130 ft 536 kts 108°
2026-05-05 09:14 22.55480 -161.86258 39130 ft 536 kts 109°
2026-05-05 09:15 22.53375 -161.78526 39134 ft 536 kts 109°
2026-05-05 09:15 22.51263 -161.70784 39144 ft 536 kts 109°
2026-05-05 09:16 22.49166 -161.63112 39139 ft 536 kts 109°
2026-05-05 09:16 22.47048 -161.55381 39122 ft 536 kts 109°
2026-05-05 09:17 22.44925 -161.47648 39121 ft 536 kts 109°
2026-05-05 09:17 22.42818 -161.39987 39138 ft 536 kts 109°
2026-05-05 09:18 22.40690 -161.32268 39138 ft 536 kts 109°
2026-05-05 09:18 22.38573 -161.24600 39132 ft 536 kts 109°
2026-05-05 09:19 22.36438 -161.16887 39117 ft 536 kts 109°
2026-05-05 09:19 22.34302 -161.09182 39129 ft 536 kts 109°
2026-05-05 09:20 22.32160 -161.01473 39129 ft 536 kts 109°
2026-05-05 09:20 22.30013 -160.93761 39128 ft 536 kts 109°
2026-05-05 09:21 22.23317 -160.69807 39126 ft 536 kts 109°
2026-05-05 09:21 22.18134 -160.51371 39128 ft 536 kts 109°
2026-05-05 09:22 22.12884 -160.32779 39122 ft 536 kts 109°
2026-05-05 09:22 22.08528 -160.17423 39123 ft 536 kts 109°
2026-05-05 09:22 22.06356 -160.09785 38972 ft 526 kts 109°
2026-05-05 09:23 22.04237 -160.02355 37491 ft 528 kts 109°
2026-05-05 09:23 22.02037 -159.94657 35848 ft 532 kts 109°
2026-05-05 09:23 21.99889 -159.87152 34349 ft 534 kts 108°
2026-05-05 09:23 21.97690 -159.79479 32591 ft 538 kts 108°
2026-05-05 09:24 21.95469 -159.71745 30782 ft 542 kts 108°
2026-05-05 09:24 21.93244 -159.64011 28931 ft 543 kts 108°
2026-05-05 09:24 21.89612 -159.51801 26742 ft 527 kts 113°
2026-05-05 09:24 21.83911 -159.37618 24343 ft 504 kts 115°
2026-05-05 09:25 21.78460 -159.24089 21744 ft 483 kts 115°
2026-05-05 09:25 21.73380 -159.11505 18251 ft 441 kts 115°
2026-05-05 09:25 21.68578 -158.99644 15741 ft 426 kts 115°
2026-05-05 09:25 21.63908 -158.88135 13330 ft 411 kts 114°
2026-05-05 09:26 21.59462 -158.77198 11519 ft 377 kts 114°
2026-05-05 09:26 21.55596 -158.67708 11000 ft 321 kts 114°
2026-05-05 09:26 21.53514 -158.62605 10434 ft 302 kts 114°
2026-05-05 09:26 21.52675 -158.60552 10138 ft 299 kts 114°
2026-05-05 09:27 21.51859 -158.58553 9830 ft 295 kts 114°
2026-05-05 09:27 21.51034 -158.56532 9502 ft 295 kts 114°
2026-05-05 09:27 21.50210 -158.54517 9203 ft 294 kts 114°
2026-05-05 09:27 21.49394 -158.52520 8894 ft 292 kts 114°
2026-05-05 09:28 21.48579 -158.50527 8599 ft 289 kts 114°
2026-05-05 09:28 21.47773 -158.48558 8306 ft 287 kts 114°
2026-05-05 09:28 21.46976 -158.46610 7994 ft 285 kts 114°
2026-05-05 09:28 21.46117 -158.44700 7701 ft 282 kts 121°
2026-05-05 09:29 21.45107 -158.42939 7424 ft 280 kts 123°
2026-05-05 09:29 21.44053 -158.41191 7123 ft 278 kts 124°
2026-05-05 09:29 21.43009 -158.39463 6835 ft 275 kts 124°
2026-05-05 09:29 21.41974 -158.37743 6538 ft 274 kts 124°
2026-05-05 09:30 21.40946 -158.36032 6233 ft 272 kts 124°
2026-05-05 09:30 21.39920 -158.34329 5934 ft 271 kts 123°
2026-05-05 09:30 21.38898 -158.32630 5632 ft 271 kts 123°
2026-05-05 09:30 21.37883 -158.30941 5326 ft 269 kts 123°
2026-05-05 09:31 21.36870 -158.29254 5070 ft 268 kts 123°
2026-05-05 09:31 21.35860 -158.27573 4981 ft 268 kts 123°
2026-05-05 09:31 21.34849 -158.25888 4981 ft 269 kts 123°
2026-05-05 09:31 21.33850 -158.24226 4988 ft 269 kts 123°
2026-05-05 09:32 21.32994 -158.22704 4981 ft 269 kts 117°
2026-05-05 09:32 21.32484 -158.20809 4948 ft 262 kts 95°
2026-05-05 09:32 21.32485 -158.18889 4743 ft 254 kts 87°
2026-05-05 09:32 21.32554 -158.16985 4268 ft 258 kts 89°
2026-05-05 09:33 21.32552 -158.15046 3817 ft 260 kts 91°
2026-05-05 09:33 21.32519 -158.13138 3430 ft 259 kts 91°
2026-05-05 09:33 21.32522 -158.11224 3075 ft 256 kts 90°
2026-05-05 09:33 21.32528 -158.09303 2737 ft 252 kts 90°
2026-05-05 09:34 21.32524 -158.07457 2407 ft 249 kts 89°
2026-05-05 09:34 21.32523 -158.05623 2081 ft 241 kts 89°
2026-05-05 09:34 21.32524 -158.03891 1784 ft 224 kts 89°
2026-05-05 09:34 21.32521 -158.02282 1491 ft 208 kts 89°
2026-05-05 09:35 21.32521 -158.00847 1252 ft 188 kts 88°
2026-05-05 09:35 21.32521 -157.98377 798 ft 151 kts 89°
2026-05-05 09:35 21.32526 -157.97297 610 ft 140 kts 89°
2026-05-05 09:36 21.32520 -157.96284 425 ft 132 kts 90°
2026-05-05 09:36 21.32523 -157.95308 260 ft 130 kts 89°
2026-05-05 09:36 21.32524 -157.94327 94 ft 129 kts 88°
2026-05-05 09:36 21.32530 -157.93400 32 ft 115 kts 90°
2026-05-05 09:37 21.32527 -157.92685 30 ft 85 kts 90°
2026-05-05 09:37 21.32527 -157.92481 30 ft 76 kts 90°
2026-05-05 09:37 21.32529 -157.91734 30 ft 47 kts 90°
2026-05-05 09:37 21.32528 -157.91451 30 ft 26 kts 90°
2026-05-05 09:38 21.32574 -157.91336 30 ft 21 kts 25°
2026-05-05 09:38 21.32715 -157.91305 30 ft 22 kts
2026-05-05 09:38 21.32774 -157.91376 30 ft 14 kts 269°
2026-05-05 09:38 21.32773 -157.91488 30 ft 17 kts 270°
2026-05-05 09:39 21.32774 -157.91624 30 ft 20 kts 270°
2026-05-05 09:39 21.32774 -157.91779 30 ft 23 kts 270°
2026-05-05 09:39 21.32775 -157.91960 30 ft 25 kts 270°
2026-05-05 09:39 21.32776 -157.92153 30 ft 26 kts 270°
2026-05-05 09:40 21.32775 -157.92296 30 ft 11 kts 269°
2026-05-05 09:40 21.32783 -157.92372 30 ft 10 kts 301°
2026-05-05 09:40 21.32832 -157.92386 30 ft 8 kts 356°
2026-05-05 09:40 21.32873 -157.92386 30 ft 0 kts 359°